Flag for U.S.A. Weather past 2 weeks in Grand Prairie, Texas, U.S.A.

Now
77 °F

Clear.


Feels Like: 79 °F
Forecast: 75 / 92 °F
Wind: 6 mph from Southeast

Location: Grand Prairie Municipal Airport

Current Time: Jul 30, 2014 at 6:26:40 AM

Latest Report: Jul 30, 2014 at 5:55 AM


Visibility: 10 mi

Pressure: 30.05 "Hg

Humidity: 69%

Dew point: 66 °F

Location of Grand PrairieLocation

Historic Weather in Grand Prairie — Graph

°F

Grand Prairie temperature yesterday

Maximum temperature yesterday: 82 °F (at 12:50 PM)
Minimum temperature yesterday: 75 °F (at 2:50 PM)
Average temperature yesterday: 79 °F

Past Weeks' High & Low Weather Summary

 TemperatureHumidityPressure
High100 °F (Jul 27, 2:50 PM)100% (Jul 17, 2:50 PM)30.18 "Hg (Jul 17, 2:50 PM)
Low36 °F (Jul 18, 11:50 AM)22% (Jul 15, 6:50 PM)29.88 "Hg (Jul 16, 6:50 PM)
Average80 °F63%30.02 "Hg
* Reported Jul 15 5:15 AM — Jul 30 5:35 AM, Grand Prairie, Weather by CustomWeather, © 2014

Note: Actual official high and low records may vary slightly from our data, if they occured in-between our weather recording intervals... More about our weather records

Advertising

Grand Prairie weather history for previous 24 hours

 ConditionsComfort  
Time TempWeatherWind HumidityBarometerVisibility
5:35 AM
Jul 30
77 °FClear.6 mph68%30.05 "Hg10 mi
5:15 AM76 °FClear.3 mph68%30.05 "Hg10 mi
4:55 AM76 °FClear.3 mph68%30.05 "Hg10 mi
4:35 AM75 °FClear.5 mph68%30.04 "Hg10 mi
4:15 AM75 °FClear.No wind68%30.04 "Hg10 mi
3:55 AM75 °FClear.No wind67%30.04 "Hg10 mi
3:35 AM75 °FClear.3 mph67%30.04 "Hg10 mi
3:15 AM75 °FClear.No wind67%30.04 "Hg10 mi
2:55 AM75 °FClear.3 mph67%30.04 "Hg10 mi
2:35 AM74 °FClear.No wind70%30.04 "Hg10 mi
2:15 AM73 °FClear.No wind75%30.05 "Hg10 mi
1:55 AM73 °FClear.No wind74%30.05 "Hg10 mi
1:35 AM74 °FClear.No wind74%30.06 "Hg10 mi
1:15 AM74 °FClear.No wind70%30.06 "Hg10 mi
12:55 AM76 °FClear.No wind66%30.07 "Hg10 mi
12:35 AM76 °FClear.No wind66%30.07 "Hg10 mi
12:15 AM76 °FClear.No wind65%30.07 "Hg10 mi
11:55 PM
Jul 29
76 °FClear.No wind66%30.08 "Hg10 mi
11:35 PM77 °FClear.3 mph62%30.08 "Hg10 mi
11:15 PM78 °FClear.No wind60%30.08 "Hg10 mi
10:55 PM78 °FClear.3 mph60%30.08 "Hg10 mi
10:35 PM78 °FClear.No wind58%30.08 "Hg10 mi
10:15 PM77 °FClear.No wind62%30.08 "Hg10 mi
9:55 PM77 °FClear.No wind60%30.07 "Hg10 mi
9:35 PM78 °FClear.No wind56%30.07 "Hg10 mi
9:15 PM77 °FSunny.No wind59%30.06 "Hg10 mi
8:55 PM77 °FSunny.3 mph57%30.07 "Hg10 mi
8:35 PM79 °FSunny.No wind52%30.08 "Hg10 mi
8:15 PM79 °FSunny.No wind52%30.08 "Hg10 mi
7:50 PM79 °FSunny.No wind54%30.08 "Hg10 mi
6:50 PM81 °FSunny.No wind45%30.09 "Hg10 mi
5:50 PM82 °FSunny.No wind40%30.09 "Hg10 mi
4:50 PM81 °FSunny.No wind54%30.11 "Hg10 mi
3:50 PM79 °FSunny.No wind58%30.12 "Hg10 mi
2:50 PM75 °FBroken clouds.No wind65%30.15 "Hg10 mi
1:50 PM79 °FSunny.7 mph54%30.17 "Hg10 mi
12:50 PM82 °FSunny.9 mph48%30.17 "Hg10 mi
11:50 AM81 °FSunny.7 mph51%30.18 "Hg10 mi
10:50 AM81 °FSunny.7 mph51%30.18 "Hg10 mi
9:50 AM79 °FSunny.7 mph54%30.16 "Hg10 mi
8:50 AM79 °FSunny.No wind51%30.16 "Hg10 mi
7:50 AM77 °FSunny.No wind54%30.15 "Hg10 mi
6:50 AM77 °FClear.5 mph54%30.13 "Hg10 mi
6:35 AM76 °FClear.3 mph55%30.13 "Hg10 mi
6:15 AM76 °FClear.No wind54%30.13 "Hg10 mi
Weather by CustomWeather, © 2014

See weather overviewHow to use our weather pages